TimeCDT,TemperatureF,Dew PointF,Humidity,Sea Level PressureIn,VisibilityMPH,Wind Direction,Wind SpeedMPH,Gust SpeedMPH,PrecipitationIn,Events,Conditions,WindDirDegrees,DateUTC
12:34 AM,28.4,23.0,80,30.04,10.0,Calm,Calm,-,N/A,,Scattered Clouds,0,2012-11-02 05:34:00
12:53 AM,28.0,23.0,81,30.09,10.0,Calm,Calm,-,N/A,,Scattered Clouds,0,2012-11-02 05:53:00
1:14 AM,26.6,21.2,80,30.04,10.0,Calm,Calm,-,N/A,,Mostly Cloudy,0,2012-11-02 06:14:00
1:36 AM,26.6,21.2,80,30.05,10.0,Calm,Calm,-,N/A,,Scattered Clouds,0,2012-11-02 06:36:00
1:53 AM,26.1,21.9,84,30.10,10.0,Calm,Calm,-,N/A,,Clear,0,2012-11-02 06:53:00
2:53 AM,25.0,21.0,85,30.12,10.0,Calm,Calm,-,N/A,,Clear,0,2012-11-02 07:53:00
3:53 AM,21.9,19.0,89,30.12,10.0,Calm,Calm,-,N/A,,Clear,0,2012-11-02 08:53:00
4:53 AM,19.9,17.1,89,30.12,10.0,Calm,Calm,-,N/A,,Clear,0,2012-11-02 09:53:00
5:53 AM,19.0,15.1,85,30.13,10.0,Calm,Calm,-,N/A,,Clear,0,2012-11-02 10:53:00
6:53 AM,17.1,14.0,88,30.15,10.0,Calm,Calm,-,N/A,,Clear,0,2012-11-02 11:53:00
7:53 AM,16.0,12.0,84,30.16,10.0,Calm,Calm,-,N/A,,Clear,0,2012-11-02 12:53:00
8:53 AM,21.9,19.9,92,30.19,10.0,Calm,Calm,-,N/A,,Clear,0,2012-11-02 13:53:00
9:53 AM,30.0,24.1,79,30.18,10.0,NE,4.6,-,N/A,,Clear,40,2012-11-02 14:53:00
10:53 AM,33.1,23.0,66,30.19,10.0,Calm,Calm,-,N/A,,Clear,0,2012-11-02 15:53:00
11:53 AM,35.1,23.0,61,30.19,10.0,Variable,3.5,-,N/A,,Clear,0,2012-11-02 16:53:00
12:53 PM,37.9,23.0,55,30.20,10.0,Variable,6.9,-,N/A,,Clear,0,2012-11-02 17:53:00
1:53 PM,39.0,23.0,53,30.19,10.0,Calm,Calm,-,N/A,,Clear,0,2012-11-02 18:53:00
2:53 PM,39.9,21.0,47,30.17,10.0,Variable,4.6,-,N/A,,Clear,0,2012-11-02 19:53:00
3:53 PM,39.0,21.9,50,30.18,10.0,Variable,3.5,-,N/A,,Clear,0,2012-11-02 20:53:00
4:53 PM,37.9,23.0,55,30.18,10.0,Variable,3.5,-,N/A,,Clear,0,2012-11-02 21:53:00
5:53 PM,35.1,21.9,59,30.20,10.0,Calm,Calm,-,N/A,,Clear,0,2012-11-02 22:53:00
6:53 PM,32.0,21.0,64,30.22,10.0,NNE,3.5,-,N/A,,Clear,20,2012-11-02 23:53:00
7:53 PM,30.0,21.0,69,30.23,10.0,Variable,3.5,-,N/A,,Clear,0,2012-11-03 00:53:00
8:53 PM,28.9,21.0,72,30.23,10.0,Calm,Calm,-,N/A,,Clear,0,2012-11-03 01:53:00
9:53 PM,28.9,21.9,75,30.23,10.0,Calm,Calm,-,N/A,,Clear,0,2012-11-03 02:53:00
10:53 PM,27.0,21.0,78,30.23,10.0,NNE,3.5,-,N/A,,Clear,30,2012-11-03 03:53:00
11:53 PM,28.0,21.9,78,30.23,10.0,NE,5.8,-,N/A,,Clear,50,2012-11-03 04:53:00